"Pseudo-MPEC" for P12hmJW

Created 2025 Dec 5 23:35:06 UT using Find_Orb

Click here for an explanation of pseudo-MPECs

 
 Astrometry: 
     P12hmJW* C2025 11 16.42709004 11 10.459+03 46 25.78   ~BGHo 22.41wXNEOCPF51
     P12hmJW  C2025 11 16.43923104 11 10.179+03 46 25.93   ~BGHo 22.07wXNEOCPF51
     P12hmJW  C2025 11 16.46364104 11 09.595+03 46 25.71   ~BGHo 21.75wXNEOCPF51
     P12hmJW  C2025 11 28.36784404 06 28.994+03 51 15.76   ~BSJ5 22.53wXNEOCPF51
     P12hmJW  C2025 11 28.38005004 06 28.704+03 51 16.06   ~BSJ5 22.21wXNEOCPF51
     P12hmJW  C2025 11 28.39231004 06 28.409+03 51 16.91   ~BSJ5 22.24wXNEOCPF51
     P12hmJW  C2025 11 28.40459504 06 28.114+03 51 17.43   ~BSJ5 22.57wXNEOCPF51

Station data:
(F51) Pan-STARRS 1, Haleakala  (N20.707234 W156.255910)  US/Hawaii.
   Observers J. Herman, T. Lowe, P. Minguez, A. Schultz, I. Smith. Measurers
   K. Chambers, T. de Boer, J. Fairlamb, H. Gao, M. Huber, C.-C. Lin, E.
   Magnier, Y. Ramanjooloo, R. Wainscoat, R. Weryk. 1.8-m Ritchey-Chrétien +
   CCD.

Orbital elements:  P12hmJW
   Perihelion 2025 Mar 22.484352 +/- 1630 TT = 11:37:28.0 (JD 2460756.984352)
Epoch 2025 Nov 28.0 TT = JDT 2461007.5   Sa: 0.9804              AutoNEOCP
M   6.484406284 +/- 60              (J2000 ecliptic)
n   0.025884236 +/- 0.0151          Peri.  312.135899 +/- 70
a  11.31824635 +/- 4.41             Node    91.511317 +/- 12
e   0.35412822 +/- 0.244            Incl.   27.089408 +/- 13
P  38.07753                H 13.48  G  0.15   U 10.1  SR
q 7.310135862 +/- 0.686    Q 15.32635684 +/- 24.1
From 7 observations 2025 Nov. 16-28; mean residual 0".12
Residuals in arcseconds: 
251116 F51  .04-  .11+    251128 F51  .08-  .03-    251128 F51  .06+  .14+    
251116 F51  .07+  .16+    251128 F51  .00   .23-    
251116 F51  .02-  .27-    251128 F51  .02+  .12+    

Ephemerides (geocentric):
Date (UTC) HH   RA             Dec           delta  r     elong  mag " sig PA
---- --------  ------------   ------------  ------ ------ -----  --- --------
2025 12 06 00  04 03 30.758   +03 57 51.91  6.4499 7.3751 158.4 22.2 45.0 172
2025 12 06 01  04 03 29.804   +03 57 54.54  6.4500 7.3751 158.4 22.2 45.4 172
2025 12 06 02  04 03 28.849   +03 57 57.17  6.4502 7.3751 158.4 22.2 45.7 172
2025 12 06 03  04 03 27.895   +03 57 59.81  6.4504 7.3751 158.3 22.2 46.1 172
2025 12 06 04  04 03 26.942   +03 58 02.45  6.4506 7.3752 158.3 22.2 46.4 172
2025 12 06 05  04 03 25.988   +03 58 05.10  6.4508 7.3752 158.3 22.2 46.8 172
2025 12 06 06  04 03 25.035   +03 58 07.76  6.4510 7.3752 158.2 22.2 47.2 172
2025 12 06 07  04 03 24.082   +03 58 10.41  6.4512 7.3752 158.2 22.2 47.5 172
2025 12 06 08  04 03 23.129   +03 58 13.08  6.4513 7.3752 158.2 22.2 47.9 172
2025 12 06 09  04 03 22.177   +03 58 15.74  6.4515 7.3753 158.2 22.2 48.2 171
2025 12 06 10  04 03 21.225   +03 58 18.42  6.4517 7.3753 158.1 22.2 48.6 171
2025 12 06 11  04 03 20.273   +03 58 21.10  6.4519 7.3753 158.1 22.2 49.0 171
2025 12 06 12  04 03 19.321   +03 58 23.78  6.4521 7.3753 158.1 22.2 49.3 171
2025 12 06 13  04 03 18.370   +03 58 26.47  6.4523 7.3754 158.0 22.2 49.7 171
2025 12 06 14  04 03 17.419   +03 58 29.16  6.4525 7.3754 158.0 22.2 50.1 171
2025 12 06 15  04 03 16.468   +03 58 31.86  6.4527 7.3754 158.0 22.2 50.4 171
2025 12 06 16  04 03 15.517   +03 58 34.57  6.4529 7.3754 158.0 22.2 50.8 171
2025 12 06 17  04 03 14.567   +03 58 37.28  6.4531 7.3754 157.9 22.2 51.2 171
2025 12 06 18  04 03 13.617   +03 58 39.99  6.4532 7.3755 157.9 22.2 51.5 171
2025 12 06 19  04 03 12.667   +03 58 42.71  6.4534 7.3755 157.9 22.2 51.9 171
2025 12 06 20  04 03 11.718   +03 58 45.44  6.4536 7.3755 157.8 22.2 52.3 171
2025 12 06 21  04 03 10.769   +03 58 48.16  6.4538 7.3755 157.8 22.2 52.7 171
2025 12 06 22  04 03 09.820   +03 58 50.90  6.4540 7.3755 157.8 22.2 53.0 171
2025 12 06 23  04 03 08.871   +03 58 53.64  6.4542 7.3756 157.8 22.2 53.4 171
2025 12 07 00  04 03 07.923   +03 58 56.39  6.4544 7.3756 157.7 22.2 53.8 171
2025 12 07 01  04 03 06.975   +03 58 59.14  6.4546 7.3756 157.7 22.2 54.2 171
2025 12 07 02  04 03 06.027   +03 59 01.89  6.4548 7.3756 157.7 22.2 54.5 170
2025 12 07 03  04 03 05.080   +03 59 04.65  6.4550 7.3756 157.6 22.2 54.9 170
2025 12 07 04  04 03 04.132   +03 59 07.42  6.4552 7.3757 157.6 22.2 55.3 170
2025 12 07 05  04 03 03.185   +03 59 10.19  6.4554 7.3757 157.6 22.2 55.7 170
2025 12 07 06  04 03 02.239   +03 59 12.96  6.4556 7.3757 157.5 22.2 56.1 170
2025 12 07 07  04 03 01.292   +03 59 15.75  6.4558 7.3757 157.5 22.2 56.5 170
2025 12 07 08  04 03 00.346   +03 59 18.53  6.4560 7.3757 157.5 22.2 56.9 170
2025 12 07 09  04 02 59.401   +03 59 21.32  6.4562 7.3758 157.5 22.2 57.3 170
2025 12 07 10  04 02 58.455   +03 59 24.12  6.4564 7.3758 157.4 22.2 57.6 170
2025 12 07 11  04 02 57.510   +03 59 26.92  6.4566 7.3758 157.4 22.2 58.0 170
2025 12 07 12  04 02 56.565   +03 59 29.73  6.4568 7.3758 157.4 22.2 58.4 170
2025 12 07 13  04 02 55.620   +03 59 32.54  6.4570 7.3759 157.3 22.2 58.8 170
2025 12 07 14  04 02 54.676   +03 59 35.36  6.4572 7.3759 157.3 22.2 59.2 170
2025 12 07 15  04 02 53.732   +03 59 38.18  6.4574 7.3759 157.3 22.2 59.6 170
2025 12 07 16  04 02 52.788   +03 59 41.01  6.4576 7.3759 157.2 22.2 60.0 170
2025 12 07 17  04 02 51.845   +03 59 43.84  6.4578 7.3759 157.2 22.2 60.4 170
2025 12 07 18  04 02 50.902   +03 59 46.68  6.4580 7.3760 157.2 22.2 60.8 170
2025 12 07 19  04 02 49.959   +03 59 49.52  6.4582 7.3760 157.2 22.2 61.2 169
2025 12 07 20  04 02 49.016   +03 59 52.37  6.4584 7.3760 157.1 22.2 61.6 169
2025 12 07 21  04 02 48.074   +03 59 55.22  6.4586 7.3760 157.1 22.2 62.0 169
2025 12 07 22  04 02 47.132   +03 59 58.08  6.4588 7.3760 157.1 22.2 62.4 169
2025 12 07 23  04 02 46.190   +04 00 00.94  6.4590 7.3761 157.0 22.2 62.8 169